When you browse on this site, cookies collect data to enhance your experience and personalize the content and advertising you see.
Visit our Privacy Policy to learn more. By continuing to use the site, you agree to this use of cookies and data.
  • în România
  • Lista ţărilor
  • Pe 7 zile
  • Temperatura apei
  • Meteo pe hartă
  • Widget-uri
  • user-avatar
    Intrare

    Meteo pe oră la Santiago del Estero

    Astăzi, 24 August, Sâmbătă

    Timp Temperatura Precipitaţii Vânt Presiune Umiditate
    00:00 +17°C° 0 mm 4 m/s 744 mmHg 41%
    01:00 +16°C° 0 mm 3 m/s 744 mmHg 44%
    02:00 +14°C° 0 mm 3 m/s 744 mmHg 46%
    03:00 +13°C° 0 mm 3 m/s 743 mmHg 49%
    04:00 +12°C° 0 mm 3 m/s 743 mmHg 52%
    05:00 +12°C° 0 mm 3 m/s 743 mmHg 55%
    06:00 +13°C° 0 mm 4 m/s 744 mmHg 53%
    07:00 +13°C° 0 mm 4 m/s 744 mmHg 52%
    08:00 +14°C° 0 mm 5 m/s 745 mmHg 50%
    09:00 +17°C° 0 mm 5 m/s 745 mmHg 43%
    10:00 +21°C° 0 mm 5 m/s 745 mmHg 36%
    11:00 +24°C° 0 mm 6 m/s 745 mmHg 30%
    12:00 +26°C° 0 mm 6 m/s 744 mmHg 27%
    13:00 +28°C° 0 mm 5 m/s 743 mmHg 25%
    14:00 +30°C° 0 mm 5 m/s 742 mmHg 23%
    15:00 +30°C° 0 mm 5 m/s 742 mmHg 23%
    16:00 +30°C° 0 mm 4 m/s 742 mmHg 24%
    17:00 +30°C° 0 mm 4 m/s 741 mmHg 25%
    18:00 +27°C° 0 mm 3 m/s 742 mmHg 29%
    19:00 +25°C° 0 mm 3 m/s 743 mmHg 34%
    20:00 +22°C° 0 mm 3 m/s 743 mmHg 38%
    21:00 +21°C° 0 mm 3 m/s 743 mmHg 41%
    22:00 +20°C° 0 mm 3 m/s 743 mmHg 43%
    23:00 +20°C° 0 mm 3 m/s 743 mmHg 46%

    Mâine, 25 August, Duminică

    Timp Temperatura Precipitaţii Vânt Presiune Umiditate
    00:00 +19°C° 0 mm 3 m/s 743 mmHg 49%
    01:00 +18°C° 0 mm 2 m/s 743 mmHg 52%
    02:00 +18°C° 0 mm 2 m/s 742 mmHg 55%
    03:00 +17°C° 0 mm 2 m/s 742 mmHg 57%
    04:00 +17°C° 0 mm 2 m/s 742 mmHg 59%
    05:00 +16°C° 0 mm 2 m/s 742 mmHg 61%
    06:00 +17°C° 0 mm 2 m/s 742 mmHg 59%
    07:00 +18°C° 0 mm 2 m/s 743 mmHg 58%
    08:00 +20°C° 0 mm 1 m/s 743 mmHg 56%
    09:00 +21°C° 0 mm 2 m/s 743 mmHg 50%
    10:00 +24°C° 0 mm 2 m/s 743 mmHg 45%
    11:00 +26°C° 0 mm 2 m/s 743 mmHg 39%
    12:00 +27°C° 0 mm 2 m/s 742 mmHg 37%
    13:00 +28°C° 0 mm 2 m/s 742 mmHg 35%
    14:00 +30°C° 0 mm 2 m/s 741 mmHg 33%
    15:00 +30°C° 0 mm 2 m/s 741 mmHg 33%
    16:00 +30°C° 0 mm 2 m/s 741 mmHg 33%
    17:00 +30°C° 0 mm 2 m/s 741 mmHg 33%
    18:00 +27°C° 0 mm 2 m/s 742 mmHg 42%
    19:00 +24°C° 0 mm 3 m/s 742 mmHg 51%
    20:00 +21°C° 0 mm 3 m/s 743 mmHg 59%
    21:00 +20°C° 0 mm 3 m/s 743 mmHg 64%
    22:00 +19°C° 0 mm 3 m/s 744 mmHg 69%
    23:00 +18°C° 0 mm 2 m/s 744 mmHg 74%

    Poimâine, 26 August, Luni

    Timp Temperatura Precipitaţii Vânt Presiune Umiditate
    00:00 +17°C° 0 mm 2 m/s 744 mmHg 78%
    01:00 +16°C° 0 mm 2 m/s 744 mmHg 82%
    02:00 +16°C° 0 mm 1 m/s 744 mmHg 87%
    03:00 +15°C° 0 mm 1 m/s 744 mmHg 88%
    04:00 +15°C° 0 mm 2 m/s 744 mmHg 89%
    05:00 +15°C° 0 mm 2 m/s 744 mmHg 91%
    06:00 +16°C° 0 mm 1 m/s 744 mmHg 87%
    07:00 +18°C° 0 mm 1 m/s 744 mmHg 84%
    08:00 +18°C° 0 mm 1 m/s 745 mmHg 80%
    09:00 +21°C° 0 mm 1 m/s 744 mmHg 71%
    10:00 +23°C° 0 mm 1 m/s 744 mmHg 61%
    11:00 +26°C° 0 mm 1 m/s 744 mmHg 52%
    12:00 +28°C° 0 mm 2 m/s 743 mmHg 47%
    13:00 +29°C° 0 mm 3 m/s 742 mmHg 41%
    14:00 +31°C° 0 mm 3 m/s 741 mmHg 36%
    15:00 +33°C° 0 mm 3 m/s 741 mmHg 35%
    16:00 +33°C° 0 mm 3 m/s 741 mmHg 34%
    17:00 +33°C° 0 mm 3 m/s 740 mmHg 33%
    18:00 +30°C° 0 mm 3 m/s 741 mmHg 39%
    19:00 +28°C° 0 mm 3 m/s 741 mmHg 44%
    20:00 +26°C° 0 mm 2 m/s 741 mmHg 49%
    21:00 +25°C° 0 mm 2 m/s 742 mmHg 53%
    22:00 +24°C° 0 mm 2 m/s 742 mmHg 56%
    23:00 +24°C° 0 mm 2 m/s 742 mmHg 59%

    27 August, Marţi

    Timp Temperatura Precipitaţii Vânt Presiune Umiditate
    00:00 +23°C° 0 mm 2 m/s 742 mmHg 63%
    01:00 +21°C° 0 mm 2 m/s 742 mmHg 68%
    02:00 +21°C° 0 mm 1 m/s 742 mmHg 72%
    03:00 +20°C° 0 mm 2 m/s 742 mmHg 73%
    04:00 +20°C° 0 mm 2 m/s 742 mmHg 75%
    05:00 +20°C° 0 mm 2 m/s 743 mmHg 77%
    06:00 +21°C° 0 mm 2 m/s 743 mmHg 72%
    07:00 +23°C° 0 mm 2 m/s 744 mmHg 67%
    08:00 +24°C° 0 mm 2 m/s 745 mmHg 62%
    09:00 +27°C° 0 mm 2 m/s 745 mmHg 54%
    10:00 +29°C° 0 mm 3 m/s 745 mmHg 46%
    11:00 +33°C° 0 mm 4 m/s 745 mmHg 38%
    12:00 +34°C° 0 mm 5 m/s 744 mmHg 35%
    13:00 +36°C° 0 mm 5 m/s 743 mmHg 31%
    14:00 +37°C° 0 mm 5 m/s 742 mmHg 28%
    15:00 +38°C° 0 mm 6 m/s 742 mmHg 27%
    16:00 +38°C° 0 mm 6 m/s 742 mmHg 26%
    17:00 +38°C° 0 mm 6 m/s 741 mmHg 25%
    18:00 +35°C° 0 mm 5 m/s 742 mmHg 28%
    19:00 +33°C° 0 mm 5 m/s 742 mmHg 32%
    20:00 +30°C° 0 mm 4 m/s 742 mmHg 35%
    21:00 +29°C° 0 mm 4 m/s 742 mmHg 37%
    22:00 +28°C° 0 mm 4 m/s 742 mmHg 39%
    23:00 +27°C° 0 mm 4 m/s 742 mmHg 40%

    28 August, Miercuri

    Timp Temperatura Precipitaţii Vânt Presiune Umiditate
    00:00 +27°C° 0 mm 4 m/s 742 mmHg 42%
    01:00 +26°C° 0 mm 4 m/s 741 mmHg 45%
    02:00 +25°C° 0 mm 4 m/s 741 mmHg 47%
    03:00 +25°C° 0 mm 4 m/s 741 mmHg 48%
    04:00 +23°C° 0 mm 4 m/s 740 mmHg 50%
    05:00 +23°C° 0 mm 5 m/s 740 mmHg 52%
    06:00 +25°C° 0 mm 5 m/s 740 mmHg 50%
    07:00 +24°C° 0 mm 6 m/s 740 mmHg 49%
    08:00 +26°C° 0 mm 6 m/s 741 mmHg 47%
    09:00 +29°C° 0 mm 7 m/s 741 mmHg 40%
    10:00 +34°C° 0 mm 8 m/s 740 mmHg 33%
    11:00 +38°C° 0 mm 10 m/s 740 mmHg 25%
    12:00 +39°C° 0 mm 10 m/s 739 mmHg 23%
    13:00 +40°C° 0 mm 9 m/s 738 mmHg 21%
    14:00 +43°C° 0 mm 9 m/s 737 mmHg 18%
    15:00 +41°C° 0 mm 8 m/s 737 mmHg 18%
    16:00 +41°C° 0 mm 7 m/s 737 mmHg 18%
    17:00 +41°C° 0 mm 7 m/s 736 mmHg 18%
    18:00 +39°C° 0 mm 6 m/s 736 mmHg 21%
    19:00 +36°C° 0 mm 6 m/s 737 mmHg 23%
    20:00 +34°C° 0 mm 5 m/s 737 mmHg 25%
    21:00 +33°C° 0 mm 5 m/s 737 mmHg 26%
    22:00 +32°C° 0 mm 5 m/s 737 mmHg 27%
    23:00 +30°C° 0 mm 5 m/s 737 mmHg 28%

    29 August, Joi

    Timp Temperatura Precipitaţii Vânt Presiune Umiditate
    00:00 +30°C° 0 mm 5 m/s 737 mmHg 29%
    01:00 +29°C° 0 mm 5 m/s 736 mmHg 30%
    02:00 +28°C° 0 mm 5 m/s 736 mmHg 31%
    03:00 +28°C° 0 mm 5 m/s 736 mmHg 32%
    04:00 +27°C° 0 mm 5 m/s 736 mmHg 33%
    05:00 +27°C° 0 mm 5 m/s 736 mmHg 33%
    06:00 +28°C° 0 mm 5 m/s 736 mmHg 33%
    07:00 +28°C° 0 mm 6 m/s 736 mmHg 32%
    08:00 +29°C° 0 mm 6 m/s 737 mmHg 32%
    09:00 +33°C° 0 mm 7 m/s 737 mmHg 28%
    10:00 +36°C° 0 mm 7 m/s 737 mmHg 23%
    11:00 +40°C° 0 mm 8 m/s 737 mmHg 19%
    12:00 +41°C° 0 mm 7 m/s 737 mmHg 18%
    13:00 +42°C° 0 mm 6 m/s 736 mmHg 16%
    14:00 +45°C° 0 mm 5 m/s 736 mmHg 15%
    15:00 +44°C° 0 mm 4 m/s 736 mmHg 15%
    16:00 +43°C° 0 mm 3 m/s 736 mmHg 16%
    17:00 +42°C° 0 mm 2 m/s 736 mmHg 16%
    18:00 +39°C° 0 mm 5 m/s 738 mmHg 22%
    19:00 +34°C° 0 mm 7 m/s 739 mmHg 27%
    20:00 +29°C° 0 mm 10 m/s 740 mmHg 33%
    21:00 +28°C° 0 mm 10 m/s 741 mmHg 35%
    22:00 +26°C° 0 mm 9 m/s 743 mmHg 36%
    23:00 +24°C° 0 mm 9 m/s 744 mmHg 38%
    Arată mai mult